Wetbulb
70.61 70.23 70.09 70.54 70.85 71.02 73.11 74.12 74.58 74.17 73.59 73.54 73.64 73.70 73.77 73.04 68.87 69.94 71.17 71.35 74.03 75.06 74.60 73.97 73.66 73.29 72.93 72.05 70.93 71.24 71.44 70.55 69.23
70.33 70.68 70.32 70.17 70.15 69.93 70.62 71.47 72.92 73.91 74.05 73.68 73.57 73.67 73.18 69.30 68.44 69.35 69.94 71.38 74.46 74.36 74.62 73.94 73.48 72.86 72.06 70.92 70.81 71.14 71.03 69.93 68.47
68.27 68.92 68.78 68.74 68.88 69.33 70.13 70.59 70.18 71.30 73.13 73.85 73.96 73.65 71.81 68.76 68.07 68.86 69.54 71.79 73.43 74.14 73.75 73.68 72.96 72.43 71.59 70.73 70.30 70.36 69.42 68.65 67.60
65.98 66.86 67.35 66.98 67.60 67.29 68.09 69.63 68.28 66.94 70.45 72.51 73.49 73.18 71.45 66.75 67.48 68.45 68.12 71.17 73.34 73.54 73.03 72.70 72.73 71.73 70.75 69.61 69.25 69.04 69.12 68.48 67.01
63.46 63.78 65.02 64.94 64.90 64.98 64.91 65.00 64.27 63.82 66.06 67.80 70.53 72.70 72.07 68.06 66.98 66.77 66.66 70.34 72.08 72.76 72.17 72.51 72.20 71.26 70.53 69.48 68.30 68.80 69.33 67.82 67.51
54.12 61.24 62.40 62.56 62.32 62.32 62.52 62.39 61.92 60.89 61.22 63.23 65.27 67.27 68.57 69.02 66.64 66.60 67.74 70.04 71.12 71.27 72.22 71.84 71.83 71.21 70.63 69.15 68.37 68.56 68.98 67.81 67.74
53.38 56.65 58.95 59.68 59.17 59.47 59.66 59.72 58.50 55.80 52.61 54.13 58.36 58.42 61.67 66.20 67.51 66.45 69.60 70.81 71.66 71.60 71.86 72.14 71.72 71.53 70.58 69.54 68.96 68.82 68.82 67.91 67.42
47.49 47.75 48.05 48.17 54.41 49.71 50.93 49.87 50.14 49.68 50.60 51.04 51.72 53.72 56.01 59.30 62.75 66.82 69.46 70.80 71.55 72.00 72.23 71.97 71.85 71.76 71.05 70.22 69.32 68.95 68.66 68.63 67.27
45.74 46.21 46.54 46.45 46.97 47.08 46.89 46.72 47.45 47.70 48.40 47.16 47.45 48.65 50.83 53.71 56.44 59.64 63.13 65.90 69.29 71.33 71.48 71.90 71.69 71.80 71.26 70.29 69.77 69.29 69.03 68.79 67.83
45.80 45.64 46.06 45.47 46.17 46.22 45.51 45.59 46.12 45.93 46.82 46.31 46.18 46.80 47.76 50.12 53.13 55.46 59.70 61.41 65.11 67.73 69.96 70.80 71.34 71.85 71.75 70.38 70.91 70.14 69.44 68.89 68.51
45.38 45.23 45.34 44.92 45.13 45.65 45.01 44.76 44.82 44.32 44.89 45.58 46.20 46.09 46.25 48.23 49.35 51.73 51.87 58.23 60.28 62.54 64.87 67.69 69.75 70.57 71.58 71.21 71.37 71.33 70.64 69.99 69.55
44.80 44.65 44.35 44.16 44.82 45.59 45.15 44.53 44.76 43.49 45.10 43.18 45.04 45.63 46.37 46.02 44.54 47.48 50.00 52.43 54.17 55.77 57.56 60.90 64.72 68.26 70.74 71.39 71.55 71.28 71.06 70.39 69.98
44.29 44.36 43.97 44.71 44.90 45.15 44.41 43.54 43.81 42.75 42.58 42.02 42.24 43.30 44.62 43.52 43.91 46.38 49.03 46.95 49.03 50.14 54.16 57.17 60.13 62.13 66.22 70.86 71.14 71.33 71.09 70.75 70.13
43.45 43.72 43.42 44.68 44.08 43.39 43.94 42.84 43.12 41.72 41.96 44.15 42.47 42.25 42.64 42.67 43.89 41.73 46.10 45.61 46.37 46.25 51.66 54.49 56.15 58.97 62.84 66.09 70.65 70.86 71.16 70.90 70.59
42.52 42.55 42.77 43.71 43.21 42.14 42.60 41.15 42.21 41.71 41.28 44.91 43.72 41.32 42.05 41.58 41.13 42.05 44.55 45.11 44.34 45.36 48.51 47.27 50.11 57.06 59.55 61.45 65.76 70.51 70.54 70.99 70.68
41.84 41.50 42.16 42.66 42.19 41.17 41.90 41.02 40.73 40.03 41.00 39.98 38.87 38.91 39.89 38.05 40.21 40.49 42.80 43.58 44.12 44.52 45.60 46.47 48.68 52.92 57.81 57.49 59.50 62.28 70.92 70.82 70.47
42.32 41.15 41.20 41.63 40.79 40.24 39.79 39.64 38.88 39.67 40.25 38.11 36.48 33.32 35.73 37.42 41.15 40.63 42.21 40.49 41.80 44.13 45.36 46.23 46.34 49.21 50.98 53.15 55.99 57.44 61.77 70.89 70.62
41.89 41.00 40.52 40.10 39.79 39.57 39.06 38.95 38.22 37.07 38.80 39.19 37.81 33.73 31.41 37.81 37.36 38.64 39.72 39.39 40.59 42.05 43.44 44.89 46.05 46.65 48.61 52.92 53.13 54.68 58.26 63.55 70.55
41.45 41.49 40.49 39.66 39.39 38.78 38.80 41.42 39.07 38.21 36.97 37.62 41.35 39.26 37.96 34.81 34.78 37.67 38.92 40.10 41.94 42.07 43.17 44.24 44.82 45.28 46.19 51.95 54.30 54.38 55.93 58.29 68.68
41.53 40.83 40.02 39.55 39.19 39.00 38.83 38.49 38.25 38.19 37.07 36.64 37.05 37.05 37.66 37.22 37.03 34.74 37.90 41.21 41.68 42.72 43.03 43.60 43.88 44.52 46.24 50.62 53.15 53.78 54.84 56.25 58.16
MSLP
1016.83 1016.76 1016.67 1016.54 1016.39 1016.24 1016.13 1016.00 1015.89 1015.82 1015.82 1015.84 1015.83 1015.91 1015.95 1016.26 1016.45 1016.43 1016.44 1016.41 1016.20 1016.17 1016.28 1016.34 1016.45 1016.69 1016.69 1016.60 1016.58 1016.71 1016.93 1016.91 1017.08
1017.20 1016.98 1016.91 1016.73 1016.62 1016.50 1016.45 1016.32 1016.23 1016.11 1015.99 1015.95 1015.95 1016.07 1016.19 1016.41 1016.55 1016.55 1016.52 1016.51 1016.34 1016.22 1016.30 1016.39 1016.60 1016.74 1016.96 1016.95 1016.95 1017.08 1017.10 1017.14 1017.25
1017.66 1017.41 1017.27 1017.15 1017.06 1016.89 1016.68 1016.61 1016.53 1016.45 1016.27 1016.11 1015.96 1016.10 1016.36 1016.66 1016.76 1016.79 1016.74 1016.47 1016.21 1016.23 1016.16 1016.50 1016.69 1016.87 1016.97 1017.21 1017.29 1017.35 1017.35 1017.42 1017.58
1018.08 1017.93 1017.70 1017.63 1017.52 1017.39 1017.26 1017.05 1017.11 1017.07 1016.79 1016.45 1016.24 1016.27 1016.50 1016.77 1016.87 1016.81 1016.79 1016.56 1016.18 1016.33 1016.33 1016.57 1016.67 1016.87 1017.06 1017.12 1017.27 1017.45 1017.61 1017.61 1017.72
1018.50 1018.42 1018.23 1018.13 1018.02 1017.91 1017.75 1017.60 1017.52 1017.48 1017.30 1017.06 1016.76 1016.32 1016.42 1016.88 1017.05 1017.00 1016.89 1016.58 1016.56 1016.31 1016.48 1016.60 1016.73 1016.92 1017.12 1017.32 1017.32 1017.33 1017.78 1017.80 1017.81
1019.11 1018.81 1018.68 1018.59 1018.44 1018.35 1018.21 1018.09 1018.00 1017.95 1017.86 1017.57 1017.32 1017.12 1017.07 1016.89 1017.12 1017.13 1017.02 1016.71 1016.46 1016.44 1016.43 1016.54 1016.69 1016.70 1016.97 1017.20 1017.36 1017.41 1017.76 1017.91 1018.01
1019.47 1019.29 1019.13 1018.97 1018.97 1018.84 1018.77 1018.63 1018.57 1018.50 1018.52 1018.37 1018.07 1018.01 1017.80 1017.56 1017.39 1017.28 1017.04 1016.78 1016.50 1016.31 1016.29 1016.24 1016.54 1016.64 1016.71 1016.99 1017.18 1017.35 1017.70 1017.89 1017.98
1019.82 1019.79 1019.70 1019.62 1019.45 1019.51 1019.36 1019.23 1019.16 1019.12 1019.04 1018.89 1018.74 1018.56 1018.29 1018.14 1017.81 1017.43 1017.06 1016.74 1016.46 1016.19 1016.14 1016.07 1016.24 1016.45 1016.48 1016.72 1016.93 1017.04 1017.48 1017.70 1017.91
1020.26 1020.31 1020.26 1020.17 1020.10 1019.94 1019.83 1019.79 1019.65 1019.56 1019.43 1019.40 1019.27 1019.14 1018.90 1018.62 1018.34 1018.05 1017.60 1017.15 1016.63 1016.20 1016.07 1015.99 1015.95 1016.11 1016.15 1016.28 1016.55 1016.78 1017.09 1017.43 1017.64
1020.40 1020.56 1020.51 1020.50 1020.34 1020.29 1020.24 1020.11 1020.00 1019.95 1019.83 1019.74 1019.66 1019.49 1019.32 1019.07 1018.80 1018.48 1018.14 1017.77 1017.31 1016.75 1016.24 1015.91 1015.70 1015.64 1015.73 1015.95 1016.14 1016.38 1016.71 1017.07 1017.34
1020.57 1020.74 1020.78 1020.70 1020.54 1020.41 1020.41 1020.41 1020.35 1020.30 1020.15 1019.96 1019.88 1019.83 1019.67 1019.39 1019.13 1018.80 1018.51 1018.07 1017.77 1017.54 1017.11 1016.51 1015.93 1015.47 1015.45 1015.50 1015.66 1015.87 1016.24 1016.64 1016.94
1020.63 1020.84 1020.88 1020.83 1020.61 1020.48 1020.50 1020.46 1020.39 1020.43 1020.28 1020.37 1019.98 1019.82 1019.71 1019.55 1019.34 1019.16 1018.88 1018.62 1018.28 1018.15 1017.81 1017.16 1016.65 1015.89 1015.23 1015.06 1015.21 1015.33 1015.79 1016.13 1016.43
1020.54 1020.73 1020.82 1020.77 1020.74 1020.81 1020.87 1020.85 1020.74 1020.75 1020.74 1020.61 1020.37 1020.16 1019.84 1019.63 1019.45 1019.32 1019.11 1019.03 1018.70 1018.43 1018.10 1017.67 1017.00 1016.39 1015.62 1014.72 1014.73 1014.82 1015.11 1015.60 1015.88
1020.43 1020.62 1020.75 1020.74 1020.92 1021.06 1021.06 1020.98 1021.04 1021.12 1020.98 1020.72 1020.41 1020.12 1019.97 1019.66 1019.27 1019.30 1019.13 1018.95 1018.83 1018.68 1018.24 1017.91 1017.32 1016.63 1015.97 1015.27 1014.33 1014.53 1014.52 1014.90 1015.20
1020.43 1020.62 1020.74 1020.76 1020.97 1021.11 1021.09 1021.18 1021.14 1021.25 1021.21 1021.05 1020.83 1020.37 1020.22 1019.81 1019.62 1019.29 1018.86 1018.72 1018.50 1018.46 1018.32 1017.87 1017.42 1016.75 1016.07 1015.63 1014.92 1013.87 1013.98 1014.10 1014.52
1020.35 1020.57 1020.65 1020.74 1020.97 1021.10 1021.21 1021.34 1021.49 1021.46 1021.32 1021.51 1021.14 1020.55 1020.06 1019.97 1019.63 1019.39 1019.25 1018.70 1018.13 1018.21 1018.24 1018.06 1017.56 1016.88 1016.31 1015.78 1015.42 1014.82 1013.21 1013.24 1013.81
1020.13 1020.32 1020.46 1020.64 1020.93 1021.06 1021.22 1021.42 1021.74 1021.77 1021.49 1021.64 1021.62 1021.22 1020.61 1020.06 1019.39 1019.25 1018.95 1018.79 1018.50 1018.23 1017.80 1017.71 1017.52 1017.03 1016.43 1015.83 1015.26 1014.71 1014.19 1012.53 1012.98
1019.87 1020.05 1020.25 1020.50 1020.79 1020.96 1021.09 1021.25 1021.60 1021.84 1021.52 1021.44 1021.69 1021.44 1021.18 1019.87 1018.77 1018.67 1018.44 1018.47 1018.26 1017.94 1017.63 1017.23 1016.94 1016.78 1016.32 1015.41 1014.96 1014.58 1014.01 1013.27 1011.94
1019.53 1019.72 1019.96 1020.27 1020.61 1020.80 1020.86 1020.85 1021.09 1021.47 1021.65 1021.45 1021.21 1021.18 1021.07 1020.87 1018.78 1018.25 1018.12 1018.04 1017.75 1017.41 1016.98 1016.72 1016.50 1016.35 1016.02 1015.15 1014.40 1014.05 1013.90 1013.21 1011.66
1019.27 1019.39 1019.68 1019.95 1020.28 1020.48 1020.58 1020.57 1020.79 1021.00 1021.16 1021.19 1021.14 1021.11 1020.94 1020.90 1020.95 1018.97 1016.87 1017.23 1017.06 1016.79 1016.63 1016.19 1015.90 1015.61 1015.31 1014.65 1013.93 1013.68 1013.60 1013.21 1012.69
Wind_Speed
12 12 13 14 13 14 12 11 10 7 3 2 3 4 6 7 4 2 4 4 8 12 11 9 9 8 8 8 9 9 10 12 9
14 13 13 12 13 13 13 14 13 11 7 3 3 4 5 4 3 3 3 5 10 12 12 9 8 8 7 6 7 10 10 11 8
14 13 13 14 15 17 13 14 15 14 11 10 4 5 5 4 4 4 4 9 10 11 11 9 9 9 8 7 7 9 8 9 9
15 15 14 14 17 16 18 18 19 18 17 14 11 6 4 3 3 5 3 12 12 12 10 9 10 9 9 8 8 9 9 10 9
15 15 14 14 15 16 17 18 19 19 20 19 17 10 6 3 2 3 4 14 13 11 9 10 10 10 9 9 9 10 11 9 10
9 13 14 15 15 16 16 17 17 17 19 20 21 17 6 3 3 2 9 13 14 13 10 10 11 12 11 9 9 8 11 10 11
8 11 16 16 17 17 17 17 17 13 5 5 12 5 7 6 4 3 11 12 12 10 11 9 12 13 12 11 12 11 12 12 11
4 4 4 5 12 5 8 8 6 7 5 5 5 6 6 4 5 9 15 14 14 13 11 10 11 15 14 14 14 14 14 14 15
4 4 4 4 4 6 5 4 6 7 7 7 7 7 6 5 5 9 20 21 21 15 16 15 13 18 16 15 16 16 15 16 14
3 4 4 4 4 4 5 5 5 6 6 6 7 7 7 7 5 4 19 21 22 22 21 20 17 17 19 18 17 18 17 17 16
4 4 3 4 3 4 4 4 5 5 5 6 6 5 6 6 7 7 8 21 22 24 24 24 23 20 19 20 19 18 19 18 17
4 3 3 3 3 5 5 5 5 5 5 6 6 5 6 5 6 6 7 10 18 22 25 26 26 26 25 22 22 20 20 20 18
4 3 2 3 3 3 3 3 4 4 4 4 5 5 5 6 5 5 5 6 7 14 22 24 26 27 26 25 24 22 21 21 20
3 2 2 3 2 3 2 3 3 3 5 5 5 5 5 5 5 4 5 5 5 7 17 24 23 24 27 29 23 25 23 23 22
3 1 0 1 1 2 2 2 2 1 3 4 5 5 4 4 4 8 8 6 7 4 7 10 11 23 24 27 30 25 27 25 24
3 2 2 1 1 1 0 1 2 3 1 2 4 4 5 2 2 4 4 7 10 5 5 7 8 9 20 23 26 30 28 28 25
4 3 2 2 1 1 1 1 1 2 1 1 1 3 5 2 7 3 4 6 4 7 9 6 12 11 10 15 26 25 35 29 28
4 4 3 3 2 1 1 1 3 2 2 1 1 4 3 11 2 5 3 5 4 5 5 8 8 11 12 16 16 21 28 31 29
4 5 4 4 3 3 2 3 2 3 3 2 3 3 3 3 9 1 3 4 5 6 5 8 10 10 11 19 21 20 24 27 26
5 5 4 4 3 3 4 3 4 3 3 4 2 3 2 4 5 11 16 8 4 6 8 10 9 10 11 12 12 19 23 24 25
Wind_Direction
47 51 49 47 43 41 38 37 32 26 4 317 345 49 133 86 33 318 222 219 201 179 176 173 171 175 174 163 152 153 156 138 145
48 48 40 41 35 43 39 40 33 21 21 331 273 96 82 82 33 19 227 233 214 206 195 178 180 186 185 178 169 173 177 144 156
46 47 50 43 43 42 34 45 41 31 16 11 281 126 75 39 6 4 335 273 234 234 216 185 180 182 189 191 195 197 198 171 170
50 41 46 43 45 42 43 38 37 28 18 16 355 111 94 69 358 339 332 313 260 243 247 217 194 195 197 201 219 220 200 188 196
47 45 49 48 46 44 43 40 36 31 29 25 11 342 136 79 343 317 311 313 315 299 268 250 211 204 208 219 217 213 211 199 203
34 49 46 48 45 44 42 42 38 35 28 25 25 20 357 355 330 312 300 305 301 287 301 269 222 208 213 223 216 208 216 207 214
55 45 45 43 44 42 42 44 39 31 21 17 24 16 4 0 326 297 296 299 297 288 283 276 235 219 218 221 221 202 217 216 209
37 32 24 20 34 31 33 28 31 25 26 17 15 8 12 4 3 345 330 305 294 291 280 283 251 227 221 219 217 207 216 217 225
46 41 30 36 19 27 28 26 21 24 20 19 15 16 13 7 2 356 356 357 350 319 302 285 268 234 227 221 217 211 212 218 220
65 44 39 35 25 34 28 25 24 23 15 16 17 12 9 7 1 349 3 359 358 352 338 327 311 241 229 224 216 210 210 222 221
76 55 38 33 32 33 40 32 27 18 11 11 11 13 9 9 3 0 354 3 4 359 350 340 328 314 249 226 217 214 210 215 215
97 82 46 22 18 31 26 18 25 22 9 9 360 1 358 7 5 9 0 2 2 359 351 343 337 328 311 245 226 215 216 212 214
94 80 45 9 28 32 20 19 11 13 8 346 349 349 346 355 15 11 7 359 359 349 347 343 336 329 322 301 234 219 216 213 210
104 77 10 23 29 28 9 3 43 2 346 336 338 330 338 332 1 352 346 354 351 339 339 341 333 325 322 327 281 231 218 214 209
124 117 354 61 48 3 24 20 353 286 307 325 316 294 303 336 354 340 336 332 337 322 328 330 326 322 318 321 329 270 228 215 210
165 185 179 141 149 258 340 356 341 315 357 330 302 315 253 310 281 296 293 316 326 333 330 321 325 314 320 323 316 337 260 222 213
187 193 197 169 165 318 329 167 324 280 298 303 282 327 317 303 313 254 256 258 289 308 317 304 319 313 310 303 316 307 336 236 214
196 191 175 165 160 215 233 215 172 247 304 213 202 335 272 313 190 277 260 302 292 284 280 292 291 302 305 298 304 312 294 313 225
196 169 164 167 174 199 224 196 186 159 251 311 228 236 235 307 322 29 285 256 288 288 287 293 289 290 293 286 289 305 308 306 247
187 170 175 182 181 211 234 245 217 195 208 195 236 250 271 233 235 300 310 299 279 288 295 293 285 280 281 279 276 296 294 310 316